• In Czech Republic
  • List of Countries
  • For 7 days
  • Water Temperature
  • Satellite Maps
  • Weather Map
  • Weather Widgets
  • user-avatar
    Login

    Hourly Weather Zelenyy Holm

    Today, 20 September, Thursday

    Time Temperature Precipitation Wind Pressure Humidity
    00:00 +14°C° 0 mm 3 mps 742 mmHg 92%
    01:00 +14°C° 0 mm 3 mps 742 mmHg 93%
    02:00 +14°C° 0 mm 2 mps 742 mmHg 94%
    03:00 +13°C° 0 mm 3 mps 742 mmHg 94%
    04:00 +13°C° 0 mm 3 mps 742 mmHg 94%
    05:00 +13°C° 0 mm 3 mps 742 mmHg 95%
    06:00 +14°C° 0 mm 3 mps 742 mmHg 91%
    07:00 +17°C° 0 mm 4 mps 742 mmHg 86%
    08:00 +18°C° 0 mm 4 mps 742 mmHg 82%
    09:00 +20°C° 0 mm 4 mps 742 mmHg 77%
    10:00 +22°C° 0 mm 5 mps 742 mmHg 72%
    11:00 +23°C° 0 mm 5 mps 742 mmHg 67%
    12:00 +25°C° 0 mm 5 mps 742 mmHg 64%
    13:00 +25°C° 0 mm 5 mps 742 mmHg 61%
    14:00 +26°C° 0 mm 5 mps 742 mmHg 58%
    15:00 +25°C° 0 mm 4 mps 742 mmHg 63%
    16:00 +23°C° 0 mm 4 mps 742 mmHg 68%
    17:00 +21°C° 0 mm 3 mps 742 mmHg 72%
    18:00 +20°C° 0 mm 3 mps 742 mmHg 76%
    19:00 +19°C° 0 mm 3 mps 743 mmHg 80%
    20:00 +17°C° 0 mm 2 mps 743 mmHg 84%
    21:00 +17°C° 0 mm 2 mps 743 mmHg 85%
    22:00 +16°C° 0 mm 2 mps 743 mmHg 87%
    23:00 +16°C° 0 mm 2 mps 743 mmHg 89%

    Tomorrow, 21 September, Friday

    Time Temperature Precipitation Wind Pressure Humidity
    00:00 +15°C° 0 mm 2 mps 744 mmHg 90%
    01:00 +15°C° 0 mm 2 mps 744 mmHg 90%
    02:00 +14°C° 0 mm 1 mps 744 mmHg 91%
    03:00 +14°C° 0 mm 1 mps 744 mmHg 91%
    04:00 +14°C° 0 mm 1 mps 744 mmHg 91%
    05:00 +14°C° 0 mm 1 mps 744 mmHg 92%
    06:00 +15°C° 0 mm 1 mps 745 mmHg 86%
    07:00 +16°C° 0 mm 1 mps 745 mmHg 81%
    08:00 +19°C° 0 mm 1 mps 745 mmHg 76%
    09:00 +20°C° 0 mm 1 mps 745 mmHg 69%
    10:00 +22°C° 0 mm 1 mps 745 mmHg 63%
    11:00 +24°C° 0 mm 1 mps 746 mmHg 56%
    12:00 +24°C° 0 mm 1 mps 745 mmHg 53%
    13:00 +25°C° 0 mm 1 mps 745 mmHg 50%
    14:00 +25°C° 0 mm 1 mps 745 mmHg 47%
    15:00 +24°C° 0 mm 1 mps 745 mmHg 52%
    16:00 +23°C° 0 mm 1 mps 745 mmHg 56%
    17:00 +20°C° 0 mm 0 mps 745 mmHg 60%
    18:00 +21°C° 0 mm 1 mps 745 mmHg 63%
    19:00 +20°C° 0 mm 1 mps 745 mmHg 65%
    20:00 +19°C° 0 mm 1 mps 745 mmHg 67%
    21:00 +17°C° 0 mm 2 mps 745 mmHg 68%
    22:00 +17°C° 0 mm 2 mps 745 mmHg 70%
    23:00 +17°C° 0 mm 2 mps 745 mmHg 72%

    Day after tomorrow, 22 September, Saturday

    Time Temperature Precipitation Wind Pressure Humidity
    00:00 +16°C° 0 mm 2 mps 745 mmHg 74%
    01:00 +16°C° 0 mm 2 mps 745 mmHg 75%
    02:00 +16°C° 0 mm 2 mps 744 mmHg 77%
    03:00 +15°C° 0 mm 2 mps 744 mmHg 78%
    04:00 +15°C° 0 mm 2 mps 744 mmHg 79%
    05:00 +14°C° 0 mm 3 mps 744 mmHg 79%
    06:00 +16°C° 0 mm 3 mps 744 mmHg 75%
    07:00 +18°C° 0 mm 3 mps 744 mmHg 71%
    08:00 +19°C° 0 mm 4 mps 744 mmHg 67%
    09:00 +21°C° 0 mm 4 mps 743 mmHg 63%
    10:00 +22°C° 0 mm 5 mps 743 mmHg 59%
    11:00 +25°C° 0 mm 5 mps 743 mmHg 55%
    12:00 +25°C° 0 mm 5 mps 743 mmHg 54%
    13:00 +26°C° 0 mm 5 mps 742 mmHg 52%
    14:00 +26°C° 0 mm 6 mps 742 mmHg 50%
    15:00 +25°C° 0 mm 5 mps 741 mmHg 55%
    16:00 +23°C° 0 mm 4 mps 741 mmHg 60%
    17:00 +22°C° 0 mm 3 mps 740 mmHg 65%
    18:00 +21°C° 0 mm 4 mps 740 mmHg 65%
    19:00 +21°C° 0 mm 4 mps 740 mmHg 66%
    20:00 +20°C° 0 mm 4 mps 739 mmHg 66%
    21:00 +20°C° 0 mm 4 mps 739 mmHg 64%
    22:00 +19°C° 0 mm 5 mps 739 mmHg 63%
    23:00 +19°C° 0 mm 5 mps 738 mmHg 61%

    23 September, Sunday

    Time Temperature Precipitation Wind Pressure Humidity
    00:00 +17°C° 0 mm 5 mps 738 mmHg 63%
    01:00 +18°C° 0 mm 4 mps 738 mmHg 65%
    02:00 +17°C° 0 mm 4 mps 737 mmHg 67%
    03:00 +15°C° 0.4 mm 4 mps 737 mmHg 72%
    04:00 +15°C° 0.4 mm 4 mps 737 mmHg 77%
    05:00 +14°C° 0.4 mm 4 mps 736 mmHg 82%
    06:00 +13°C° 0.7 mm 4 mps 736 mmHg 84%
    07:00 +12°C° 0.7 mm 4 mps 736 mmHg 86%
    08:00 +12°C° 0.7 mm 5 mps 736 mmHg 87%
    09:00 +10°C° 1.6 mm 5 mps 736 mmHg 88%
    10:00 +8°C° 1.6 mm 6 mps 736 mmHg 88%
    11:00 +6°C° 1.6 mm 7 mps 737 mmHg 89%
    12:00 +8°C° 0.5 mm 6 mps 737 mmHg 87%
    13:00 +9°C° 0.5 mm 6 mps 738 mmHg 84%
    14:00 +9°C° 0.5 mm 6 mps 738 mmHg 82%
    15:00 +10°C° 0 mm 5 mps 738 mmHg 81%
    16:00 +11°C° 0 mm 4 mps 739 mmHg 80%
    17:00 +11°C° 0 mm 3 mps 739 mmHg 79%
    18:00 +10°C° 0 mm 3 mps 739 mmHg 81%
    19:00 +10°C° 0 mm 4 mps 739 mmHg 83%
    20:00 +8°C° 0 mm 4 mps 739 mmHg 85%
    21:00 +8°C° 0 mm 4 mps 739 mmHg 86%
    22:00 +8°C° 0 mm 3 mps 739 mmHg 87%
    23:00 +8°C° 0 mm 3 mps 739 mmHg 87%

    24 September, Monday

    Time Temperature Precipitation Wind Pressure Humidity
    00:00 +8°C° 0 mm 3 mps 739 mmHg 88%
    01:00 +7°C° 0 mm 3 mps 739 mmHg 89%
    02:00 +7°C° 0 mm 3 mps 739 mmHg 90%
    03:00 +7°C° 0 mm 3 mps 739 mmHg 90%
    04:00 +7°C° 0 mm 3 mps 739 mmHg 89%
    05:00 +7°C° 0 mm 3 mps 739 mmHg 88%
    06:00 +7°C° 0 mm 4 mps 738 mmHg 83%
    07:00 +8°C° 0 mm 5 mps 738 mmHg 78%
    08:00 +10°C° 0 mm 6 mps 738 mmHg 72%
    09:00 +10°C° 0.2 mm 6 mps 737 mmHg 73%
    10:00 +10°C° 0.2 mm 7 mps 736 mmHg 74%
    11:00 +10°C° 0.2 mm 8 mps 736 mmHg 76%
    12:00 +9°C° 1.5 mm 8 mps 735 mmHg 78%
    13:00 +8°C° 1.5 mm 9 mps 734 mmHg 81%
    14:00 +8°C° 1.5 mm 9 mps 733 mmHg 83%
    15:00 +8°C° 0.6 mm 9 mps 732 mmHg 83%
    16:00 +9°C° 0.6 mm 10 mps 731 mmHg 83%
    17:00 +9°C° 0.6 mm 10 mps 730 mmHg 83%
    18:00 +9°C° 0.8 mm 10 mps 729 mmHg 84%
    19:00 +9°C° 0.8 mm 10 mps 728 mmHg 84%
    20:00 +10°C° 0.8 mm 9 mps 728 mmHg 85%
    21:00 +9°C° 0.3 mm 10 mps 727 mmHg 83%
    22:00 +8°C° 0.3 mm 10 mps 726 mmHg 81%
    23:00 +7°C° 0.3 mm 10 mps 726 mmHg 80%

    25 September, Tuesday

    Time Temperature Precipitation Wind Pressure Humidity
    00:00 +6°C° 0.1 mm 11 mps 726 mmHg 80%
    01:00 +6°C° 0.1 mm 11 mps 726 mmHg 79%
    02:00 +5°C° 0.1 mm 12 mps 726 mmHg 79%
    03:00 +6°C° 0.1 mm 11 mps 727 mmHg 78%
    04:00 +6°C° 0.1 mm 11 mps 728 mmHg 78%
    05:00 +4°C° 0.1 mm 11 mps 728 mmHg 77%
    06:00 +4°C° 0 mm 11 mps 729 mmHg 76%
    07:00 +4°C° 0 mm 11 mps 730 mmHg 75%
    08:00 +4°C° 0 mm 11 mps 731 mmHg 74%
    09:00 +4°C° 0 mm 11 mps 732 mmHg 72%
    10:00 +4°C° 0 mm 11 mps 733 mmHg 70%
    11:00 +6°C° 0 mm 10 mps 734 mmHg 69%
    12:00 +6°C° 0 mm 10 mps 735 mmHg 68%
    13:00 +6°C° 0 mm 10 mps 735 mmHg 66%
    14:00 +6°C° 0 mm 9 mps 736 mmHg 65%
    15:00 +5°C° 0 mm 8 mps 737 mmHg 65%
    16:00 +5°C° 0 mm 7 mps 737 mmHg 64%
    17:00 +5°C° 0 mm 6 mps 738 mmHg 64%
    18:00 +4°C° 0 mm 6 mps 738 mmHg 65%
    19:00 +4°C° 0 mm 6 mps 739 mmHg 67%
    20:00 +3°C° 0 mm 5 mps 740 mmHg 69%
    21:00 +3°C° 0 mm 5 mps 740 mmHg 71%
    22:00 +3°C° 0 mm 5 mps 741 mmHg 72%
    23:00 +2°C° 0 mm 5 mps 741 mmHg 74%
    Show more